Theta_e
328 329 330 328 327 326 327 325 322 324 331 334 333 333 332 332 333 333 331 331 332 330 330 331 330 329 329 331 331 332 332 331 331 331 331 331 330 329 327 326 325 324 323 323 322 321 320 319 318 318 317 316 316 316 315 315 315 315 316 317 320 325 332 335 335 334 333 333 334 336 336 335 333 334 334 333 335 336 337 336 331 326 327 330 329
330 332 331 327 328 328 327 327 325 325 329 332 333 333 332 331 331 332 330 329 330 330 330 330 330 329 329 330 330 332 332 332 332 332 332 332 332 332 331 331 330 329 329 329 328 327 325 323 321 320 319 317 317 316 315 314 314 313 314 314 316 319 324 329 332 332 331 332 333 335 336 336 335 335 334 333 336 337 338 338 336 332 329 332 330
330 332 329 326 326 324 323 324 325 326 328 331 332 331 331 329 330 330 330 330 329 330 331 331 331 330 329 330 330 332 332 332 332 332 332 332 332 331 331 331 331 332 332 333 333 333 332 331 328 325 322 320 317 316 316 315 314 314 313 312 312 315 321 326 331 334 332 331 332 334 335 336 336 334 329 330 336 338 340 339 338 337 333 334 331
330 330 328 328 327 323 320 318 320 324 325 327 328 328 329 329 329 328 328 329 329 330 332 332 330 330 330 330 331 332 331 332 332 333 333 333 332 331 331 330 330 330 331 332 332 333 333 334 333 330 326 324 322 319 318 316 316 315 314 312 311 310 315 325 334 336 334 333 332 333 334 335 336 333 325 325 335 339 341 340 338 338 336 335 332
328 328 327 327 326 323 320 316 317 321 322 323 324 326 329 331 331 331 330 329 329 330 331 331 330 330 331 331 331 331 331 331 331 331 331 332 331 331 331 330 329 330 330 330 330 331 331 331 332 330 327 324 324 324 322 319 318 316 316 314 312 310 311 319 331 336 336 335 333 332 333 335 336 333 325 323 333 339 341 341 339 339 337 335 332
321 322 322 322 321 319 318 315 314 318 321 323 323 324 327 331 333 333 334 333 333 333 332 331 330 330 331 331 331 330 331 332 331 330 330 330 330 329 329 328 328 330 330 330 330 331 331 330 329 329 327 324 323 325 326 324 320 317 317 317 314 312 310 314 323 332 336 335 333 332 332 334 336 334 328 325 332 337 339 341 340 339 337 335 333
317 317 317 317 317 317 316 315 313 314 319 322 323 324 326 329 332 333 334 334 335 335 334 333 333 331 331 332 332 330 331 331 332 332 332 332 332 331 330 329 330 330 330 329 328 329 330 331 330 328 327 325 325 326 327 328 325 320 316 316 316 314 312 312 317 326 333 334 334 333 331 333 335 335 331 327 334 337 338 340 340 340 338 336 335
316 316 315 315 315 316 316 316 314 314 315 319 322 324 325 326 328 329 330 332 333 334 335 335 335 333 332 331 331 331 331 331 332 332 333 334 334 333 332 332 332 331 330 329 326 326 328 329 329 329 327 326 326 327 328 329 329 327 322 317 315 314 314 313 314 319 326 331 333 332 331 334 335 335 334 329 334 338 337 339 340 340 339 337 336
315 314 314 314 314 314 314 314 314 314 314 316 318 321 323 324 325 325 327 330 331 332 333 333 333 333 333 331 331 331 331 331 332 333 333 333 333 334 334 333 332 331 331 329 328 327 327 327 327 327 327 326 325 327 329 330 332 332 330 326 320 315 313 314 314 314 317 324 329 330 330 335 336 335 336 331 332 337 337 339 340 340 340 339 337
312 312 312 312 312 312 311 311 311 312 312 313 314 316 318 320 322 323 325 327 329 331 332 332 332 333 333 333 332 332 331 330 331 332 332 332 332 332 334 333 332 332 331 330 329 328 327 327 326 326 326 326 326 326 328 330 332 331 332 332 329 322 316 313 313 312 311 315 320 325 329 333 336 336 337 331 330 336 337 338 341 339 340 340 338
309 310 309 310 310 310 309 309 310 309 309 310 310 311 312 314 316 318 321 324 326 329 331 332 332 332 333 333 334 333 332 331 332 332 333 333 332 332 332 332 331 332 331 329 328 327 326 326 326 325 324 325 327 327 326 328 329 329 331 332 332 329 323 316 313 310 309 308 311 318 326 332 335 336 337 331 328 334 336 338 340 339 339 340 339
308 308 308 308 308 308 308 308 308 308 308 308 308 308 309 309 311 312 314 316 319 322 325 328 329 331 331 331 332 332 333 333 333 333 333 334 334 333 333 332 331 331 330 328 328 328 327 327 327 324 322 323 325 327 327 327 328 328 329 330 331 330 328 323 317 312 309 306 305 311 320 330 334 336 336 332 328 331 336 339 339 339 339 339 341
307 307 307 307 307 307 307 307 307 307 307 307 307 307 307 308 308 308 309 310 311 313 315 318 322 324 327 328 330 331 331 332 332 332 333 334 334 334 334 333 332 331 330 328 328 328 329 328 327 325 324 323 324 325 326 327 328 327 327 328 330 330 329 328 325 321 316 311 307 309 317 324 330 335 336 332 329 330 335 339 339 339 340 340 341
306 306 306 306 307 307 307 307 307 306 306 306 306 305 305 306 306 307 307 307 308 308 309 310 312 314 317 320 323 325 327 329 330 330 332 333 333 334 334 334 334 333 330 329 329 328 328 327 327 327 325 324 325 326 326 327 328 328 327 327 328 329 328 329 328 327 326 321 316 313 317 322 326 333 335 332 331 330 333 337 338 338 339 340 340
305 306 306 306 306 306 306 306 306 305 305 304 304 303 303 304 304 305 305 306 306 307 307 307 308 308 310 311 313 316 319 322 324 326 327 330 331 332 333 333 334 333 332 331 330 329 328 328 328 327 326 324 324 326 326 326 326 327 326 326 326 327 328 329 329 329 329 328 324 319 318 322 326 332 335 333 332 332 332 335 336 337 338 339 339
305 305 305 306 306 306 306 306 305 305 304 303 303 303 303 303 303 303 303 303 304 304 305 305 306 307 307 308 308 309 310 312 315 318 321 323 325 328 329 330 331 332 333 333 332 331 330 330 329 328 327 325 323 324 326 327 328 326 324 324 325 327 329 331 331 330 330 330 329 324 321 324 328 331 334 334 333 332 333 333 334 336 336 338 338
305 305 305 305 306 306 306 305 305 304 304 303 303 303 302 302 302 302 302 302 302 302 302 303 303 304 305 306 306 307 307 308 309 311 313 317 319 321 323 325 326 328 330 331 333 332 332 332 330 330 329 327 324 323 324 325 326 325 323 322 323 325 328 331 331 331 330 330 331 328 325 326 328 329 332 334 333 331 332 331 332 335 335 336 336
304 304 305 305 306 306 306 305 304 304 303 302 302 302 302 302 302 302 301 301 301 301 301 301 302 302 302 303 303 304 305 306 306 307 308 311 314 317 319 320 322 323 324 326 328 329 330 331 331 331 330 329 327 325 325 323 321 319 320 323 323 324 327 330 330 330 330 329 331 331 328 326 327 328 329 333 334 331 330 331 331 333 334 334 334
304 304 305 305 306 306 305 304 303 303 302 302 302 301 301 302 301 302 301 301 301 301 301 301 301 301 301 301 301 301 302 302 304 305 305 307 309 312 315 317 319 320 321 322 323 324 325 326 328 330 331 330 329 327 327 326 323 319 317 321 324 323 325 328 329 329 329 329 329 330 330 328 327 328 328 331 334 331 329 331 332 332 333 331 331
304 304 305 305 305 305 304 303 302 302 302 301 301 301 301 301 301 301 301 301 301 301 301 301 301 301 301 301 301 301 301 301 301 302 303 304 305 307 309 312 315 317 319 320 321 321 321 322 323 325 327 329 329 328 327 327 326 323 321 320 322 322 323 326 328 328 328 329 328 329 330 330 329 328 329 329 333 333 329 332 333 332 333 330 328
304 304 305 305 305 304 303 302 301 301 301 301 301 301 301 301 301 301 301 301 301 301 301 301 301 301 301 301 300 300 300 300 300 300 300 301 302 303 305 306 309 311 314 316 318 320 321 321 321 322 323 325 327 327 327 328 327 325 323 322 321 321 321 323 326 327 327 328 328 328 328 330 330 329 330 330 331 334 332 331 333 332 332 332 328
304 304 305 305 305 303 302 301 301 301 301 301 301 301 301 301 301 301 301 301 301 301 301 301 301 301 300 300 300 300 300 300 300 299 299 299 300 300 301 302 303 305 307 309 312 314 318 320 321 322 322 323 324 326 327 327 327 325 324 324 324 322 321 321 323 326 327 327 328 327 328 329 331 331 331 331 331 333 334 331 330 332 332 333 330
304 304 305 305 304 302 301 301 301 301 301 301 301 301 301 301 301 300 300 300 300 300 300 300 300 301 300 300 300 300 299 299 299 299 299 299 299 299 299 300 300 301 302 303 304 307 310 314 318 321 322 323 323 324 326 326 326 326 325 323 323 323 324 323 322 324 326 326 327 327 326 327 329 331 331 332 331 332 335 333 329 332 334 333 330
304 304 304 303 303 301 301 301 301 301 301 301 301 301 301 300 300 300 300 300 300 300 300 300 300 300 300 300 300 299 299 298 298 298 298 298 298 298 299 299 299 299 300 300 301 302 303 306 311 316 320 323 323 323 324 325 325 326 325 323 323 323 324 324 324 325 326 326 327 326 325 325 326 329 330 331 332 331 334 334 328 331 335 334 331
303 303 303 302 301 301 301 301 301 301 301 301 301 301 300 300 300 300 300 300 300 300 300 300 300 300 300 300 299 299 299 298 298 298 298 298 298 298 298 298 298 299 299 299 299 300 300 301 303 307 313 318 321 323 323 324 325 325 325 324 324 324 323 324 325 325 327 328 327 326 325 324 323 325 328 330 331 331 333 334 329 328 332 333 331
303 303 302 301 301 301 301 301 300 300 300 300 300 300 300 300 299 299 299 299 299 299 299 299 299 299 299 299 299 299 299 298 298 298 298 298 297 297 297 297 297 298 298 298 299 299 299 299 300 301 304 309 314 319 321 322 323 324 324 324 325 324 323 323 325 326 327 328 328 327 325 323 322 322 324 328 330 331 333 334 331 327 328 330 330
302 302 301 300 300 300 300 300 300 300 300 300 299 299 299 299 299 298 298 298 298 298 298 298 298 298 298 299 299 298 298 298 298 298 298 297 297 297 297 297 297 297 297 297 297 298 298 298 298 298 299 301 304 310 315 319 321 322 323 324 324 325 324 323 324 325 326 328 328 328 326 323 322 321 321 325 328 330 331 333 333 329 327 328 329
301 300 300 300 300 300 300 299 299 299 299 299 299 298 298 298 298 298 298 298 298 298 298 298 298 298 298 298 298 298 298 297 297 297 297 297 297 297 297 297 297 297 297 297 297 297 297 297 298 298 298 298 299 301 305 311 316 319 321 322 323 324 325 325 323 324 325 326 327 328 328 325 322 320 320 323 326 328 330 332 333 332 329 329 329
300 299 299 299 299 299 299 298 298 298 298 298 298 298 297 297 297 297 297 297 297 297 297 297 297 297 297 297 297 297 297 297 297 296 296 296 296 296 296 296 296 297 297 297 297 297 297 297 297 297 298 298 298 298 299 302 306 312 316 320 322 323 324 325 324 324 325 325 326 327 328 327 324 321 319 321 325 327 329 331 332 333 332 330 329
299 298 298 298 298 298 298 297 298 298 298 298 297 297 297 297 297 297 297 297 297 297 297 297 297 297 297 297 297 297 296 297 296 296 296 296 296 296 296 296 296 296 296 296 296 296 297 296 297 297 297 297 298 298 298 298 299 302 308 314 318 320 322 324 325 324 324 325 325 326 328 328 326 323 320 320 322 324 329 330 330 332 333 332 331
298 297 297 297 297 297 297 297 297 297 297 297 297 297 297 296 296 296 296 296 296 296 296 296 296 297 297 297 297 296 296 296 296 296 296 295 295 295 295 295 295 295 295 296 296 296 296 296 296 297 297 297 297 297 297 298 298 298 300 305 311 316 320 321 323 325 325 324 324 325 326 327 328 324 320 319 320 321 325 328 329 330 332 334 333
297 297 297 297 296 296 296 296 297 297 297 297 297 296 296 296 296 296 296 296 296 296 295 295 296 296 296 296 296 296 296 295 295 295 295 295 295 295 295 295 295 295 295 295 295 296 296 296 296 296 296 297 297 297 297 297 298 298 298 299 303 309 315 318 320 323 325 325 324 324 324 324 327 326 321 320 320 319 319 324 328 329 331 333 333
296 296 296 295 295 295 296 296 296 296 296 296 296 296 296 295 296 295 296 295 295 295 295 295 295 295 296 296 296 295 295 295 295 295 295 295 295 295 295 295 295 295 295 295 295 295 295 296 296 296 297 296 297 297 297 297 297 298 298 297 298 301 307 313 318 320 322 325 325 325 324 323 325 326 323 322 323 322 319 319 324 329 331 331 332
296 295 295 295 295 295 295 295 295 295 295 295 295 295 295 295 295 295 295 295 295 294 294 294 294 294 295 295 295 295 295 295 295 295 295 295 294 294 294 294 294 294 295 295 295 295 295 295 295 296 296 296 297 297 297 297 297 298 298 297 297 298 300 306 313 317 319 322 325 326 326 325 326 326 325 325 325 324 322 319 319 325 330 331 332
295 295 295 294 295 295 294 294 294 294 294 294 294 295 295 294 294 294 294 294 294 294 294 293 294 294 295 295 295 295 295 294 294 294 294 294 294 294 294 294 294 294 294 294 294 295 295 295 295 295 296 296 297 297 297 297 297 298 298 298 298 297 297 300 305 313 317 319 322 325 326 326 327 326 326 326 327 326 325 321 317 319 325 329 331
295 294 294 294 294 294 294 294 294 294 294 294 294 294 294 294 294 294 294 294 294 294 293 293 293 294 295 295 295 294 294 294 294 294 294 294 294 294 294 294 294 294 294 294 294 294 295 295 295 295 295 296 296 297 297 297 297 297 298 298 298 298 298 298 299 305 313 317 319 322 325 326 327 327 326 326 326 327 326 322 318 317 320 325 329
294 294 293 293 293 293 293 293 294 294 294 294 294 294 294 293 293 293 293 293 293 293 293 293 293 293 294 295 294 294 293 293 293 293 294 294 294 294 294 294 294 294 294 294 294 294 294 294 295 295 295 295 296 296 297 297 297 297 298 298 298 298 298 298 298 299 305 312 317 319 322 325 326 326 327 327 325 326 327 323 318 317 319 321 324
294 294 293 293 293 293 293 294 294 294 294 294 294 293 293 293 293 293 293 293 293 293 293 293 293 293 294 294 294 293 293 293 293 293 293 293 293 293 293 293 293 293 293 293 293 294 294 294 294 294 294 295 295 296 296 296 296 297 298 298 298 298 298 298 298 298 299 305 313 317 320 322 325 325 326 327 326 324 325 324 320 317 318 320 320
294 293 293 293 293 293 293 294 294 294 293 293 293 293 293 292 292 292 292 292 292 293 293 293 292 292 293 294 293 293 293 293 293 293 293 293 293 293 293 293 293 293 293 293 293 293 293 294 294 294 294 294 294 295 295 295 295 296 297 297 297 298 298 298 298 298 298 300 306 313 318 320 322 324 323 326 326 324 323 323 322 319 318 319 318
294 293 293 292 293 293 293 293 293 293 293 292 292 292 292 292 292 292 292 292 292 292 292 292 292 292 293 293 293 293 292 292 292 292 292 292 293 293 292 292 292 292 293 293 293 293 293 293 293 293 293 293 293 293 294 294 294 295 295 296 297 297 298 298 298 299 299 298 300 306 314 317 319 322 323 325 326 325 321 321 322 320 317 318 317
293 293 292 292 292 293 292 292 292 292 292 292 292 292 292 292 292 292 292 292 292 292 292 292 292 292 292 293 292 292 292 292 292 292 292 292 292 292 292 292 292 292 292 292 292 292 293 293 293 292 292 292 292 292 293 294 295 295 295 295 296 297 297 297 298 298 299 299 298 301 307 312 315 320 323 324 325 325 323 321 322 321 319 321 319
293 292 292 292 292 292 292 292 291 291 291 291 291 292 291 292 291 291 291 292 291 292 292 292 292 292 292 292 292 292 291 291 291 291 291 291 291 291 291 291 291 292 292 292 292 292 292 292 292 292 292 291 292 292 292 293 294 295 295 295 296 296 297 297 298 298 298 299 299 299 301 306 311 317 321 323 324 325 324 323 323 321 321 324 322
293 292 292 292 292 292 291 291 291 291 291 291 291 291 291 291 291 290 291 291 291 291 291 291 291 291 291 291 291 291 291 291 291 291 291 291 291 291 291 291 291 291 291 291 291 291 292 292 292 292 291 291 291 292 292 292 293 294 295 296 296 297 298 298 298 298 298 299 299 299 300 301 307 314 320 321 322 324 325 325 325 322 322 324 324
292 292 292 292 292 291 291 291 290 290 290 290 290 290 290 290 290 290 290 290 290 290 290 291 291 291 291 291 291 290 290 290 290 290 290 290 290 290 290 291 291 291 291 291 291 291 291 292 292 291 290 290 291 291 292 292 292 293 295 296 297 298 298 298 298 298 298 298 299 301 303 304 304 310 318 320 321 323 325 325 326 324 321 320 323
292 292 292 292 291 290 290 290 290 290 290 290 290 290 290 290 290 290 290 290 291 291 291 291 291 291 291 291 290 290 289 289 289 289 289 290 290 290 290 290 290 291 291 291 291 291 291 291 291 291 290 289 289 290 290 291 293 293 294 296 297 297 298 298 298 298 298 298 298 300 305 310 310 310 315 319 321 323 325 326 326 326 321 318 321
292 292 292 291 291 290 290 290 290 290 290 290 290 290 290 290 290 290 290 291 291 291 290 291 291 291 290 290 289 289 289 289 289 289 289 289 289 289 290 290 290 290 290 291 291 291 291 291 291 290 289 288 288 289 289 290 291 293 294 295 297 297 298 298 298 298 298 298 298 298 302 309 312 314 316 318 320 322 323 325 326 326 322 319 319
292 292 291 291 291 290 290 290 290 289 290 290 290 290 290 289 290 290 290 290 290 290 290 290 290 290 289 289 289 289 289 289 289 289 289 289 289 289 289 290 290 290 290 290 290 291 291 291 290 290 289 287 286 287 288 289 290 293 295 296 296 297 298 298 298 298 298 298 297 297 298 302 306 311 316 317 318 319 321 323 325 326 323 321 322
292 292 291 291 291 290 290 290 290 289 289 290 290 289 289 289 289 290 290 289 289 289 289 289 289 289 289 288 288 288 288 288 288 288 288 288 289 289 289 289 290 290 290 290 290 291 291 291 290 289 289 287 285 286 287 289 290 291 294 296 296 297 297 297 297 298 299 299 298 298 298 299 299 304 309 313 316 317 318 320 323 326 325 322 323
292 292 291 291 291 290 290 290 290 289 289 290 289 289 289 289 289 289 289 289 289 289 289 289 289 288 288 288 288 288 288 288 288 288 288 288 288 289 289 289 289 289 289 289 290 290 291 290 289 288 287 286 285 285 287 288 289 290 292 294 295 295 295 296 296 298 299 299 299 298 298 299 298 299 302 307 313 315 315 318 320 322 325 323 323
292 292 291 291 290 290 290 290 290 289 289 289 289 289 289 289 289 289 289 289 289 288 288 289 288 288 288 288 288 288 288 288 288 288 288 288 288 288 289 289 289 289 289 289 290 290 290 289 288 286 285 284 284 284 285 286 287 288 290 291 293 294 295 295 296 297 298 298 299 299 299 300 300 299 298 302 308 312 312 314 316 319 322 324 324
292 292 291 291 290 290 290 290 290 289 289 289 289 289 289 289 289 289 289 289 288 288 288 288 288 288 288 288 288 287 287 287 287 287 287 287 287 288 288 288 288 288 289 290 290 290 290 289 287 284 283 282 283 283 283 284 286 287 289 290 291 292 294 295 296 296 296 297 298 299 300 301 301 300 299 299 302 308 310 311 312 316 320 322 324
Wind_Speed
1 1 2 3 5 5 4 3 3 2 2 3 2 2 3 4 5 5 5 6 7 7 7 6 6 5 5 4 4 4 5 6 7 7 7 6 5 5 6 6 7 9 10 11 12 13 15 16 17 17 17 16 15 15 14 14 14 12 11 11 11 13 14 14 13 14 16 15 14 13 12 13 14 14 13 13 14 16 18 18 19 19 19 17 15
2 2 2 1 3 3 1 1 3 3 0 2 2 2 1 2 3 2 2 3 4 5 6 6 7 6 6 5 5 6 7 7 8 8 8 7 6 6 6 5 5 6 7 8 9 10 12 14 15 16 17 17 17 16 16 16 16 15 13 12 12 13 15 16 15 14 15 15 15 14 13 13 13 14 13 13 13 14 16 18 20 20 20 19 18
3 4 5 3 3 4 2 2 2 3 3 1 1 1 2 3 3 3 4 3 4 5 5 5 7 7 7 7 7 8 9 9 9 9 8 8 8 7 6 6 6 7 7 8 9 10 11 12 14 15 15 16 17 17 17 17 17 17 15 14 13 13 14 15 14 14 14 14 15 15 13 13 12 12 13 13 12 13 14 17 20 21 21 21 20
7 7 7 6 6 6 5 4 4 4 5 4 3 3 4 5 5 5 5 5 5 5 6 5 5 6 7 9 9 10 11 10 11 11 9 8 9 9 8 8 8 9 9 9 10 11 12 13 13 15 15 15 15 16 17 18 18 18 18 16 14 14 14 14 13 14 14 14 15 15 14 13 11 11 13 13 12 13 14 16 19 20 21 22 21
8 8 9 9 10 10 9 7 6 7 6 7 7 6 6 6 6 7 7 6 6 6 7 6 6 6 8 10 11 11 11 11 11 11 10 9 9 10 10 10 11 11 10 11 12 12 13 14 14 15 16 16 16 16 16 17 18 18 19 18 16 14 15 15 13 13 13 14 15 15 14 14 13 12 12 13 13 14 14 15 17 18 20 22 21
8 9 10 11 11 11 10 9 7 8 8 9 9 9 9 7 6 7 7 6 6 6 7 8 8 8 8 9 10 11 11 12 12 11 12 11 10 10 11 12 13 12 11 12 13 13 13 14 14 15 17 18 18 17 16 16 17 17 18 19 18 16 15 15 15 14 13 14 15 15 15 14 14 14 13 13 13 15 14 15 16 17 20 20 20
8 9 10 10 10 8 7 7 7 8 9 10 11 11 11 10 8 8 8 7 6 6 6 7 8 9 10 10 10 11 11 12 13 12 13 14 13 12 12 12 14 13 13 14 14 14 15 15 15 16 17 19 19 19 18 17 17 17 17 18 18 17 16 16 16 16 15 15 16 16 15 15 15 15 15 14 14 15 15 15 15 16 19 17 19
8 9 9 9 9 8 7 5 5 7 8 10 11 12 12 12 12 11 11 10 9 8 8 7 8 9 11 12 11 11 12 13 13 14 15 15 15 14 13 12 14 14 14 14 15 15 15 16 17 17 17 18 19 19 20 19 18 17 18 17 18 18 17 16 17 17 17 17 17 17 16 16 15 16 18 16 15 16 16 16 16 17 18 17 19
8 9 9 9 8 7 7 5 3 3 5 8 10 11 12 13 13 14 13 13 12 12 11 11 12 12 13 14 14 13 13 14 14 14 15 14 14 15 15 14 15 15 15 15 16 16 16 17 17 18 18 18 18 19 20 19 19 19 18 17 16 17 18 17 18 19 20 19 18 18 18 17 17 18 19 17 16 16 17 18 18 19 19 20 21
7 6 6 6 6 5 5 5 4 3 2 3 5 8 10 12 13 13 14 14 14 14 13 13 15 14 14 15 16 16 16 16 16 15 15 15 15 16 16 16 15 16 15 15 16 17 17 17 18 18 19 19 19 20 20 19 20 21 20 18 16 17 18 18 19 20 21 22 21 19 18 18 18 19 19 17 17 17 17 19 20 20 21 22 22
4 2 2 2 3 3 4 4 4 4 4 4 3 2 4 7 9 11 13 14 15 15 15 15 15 16 15 16 16 17 17 17 17 16 16 16 17 17 17 17 17 17 17 16 16 17 18 18 19 19 19 20 20 20 21 20 20 22 21 20 18 17 18 19 20 21 22 24 23 21 20 20 19 21 20 18 18 18 18 20 22 22 21 22 22
2 1 2 3 3 3 3 4 4 5 5 5 6 5 5 4 5 6 8 11 13 15 17 17 18 18 17 18 18 17 17 18 18 16 17 18 18 19 19 19 19 18 18 18 18 17 18 18 19 20 20 21 21 21 21 21 20 21 21 22 20 19 19 20 21 21 23 24 25 23 22 22 21 22 20 19 20 19 20 21 23 23 22 23 23
4 4 4 3 3 3 3 3 4 5 5 6 6 7 7 7 7 6 6 7 8 10 13 16 17 19 20 20 20 20 19 20 20 18 18 19 19 21 21 22 22 21 21 21 20 20 20 19 19 20 20 20 21 22 22 22 21 20 21 22 22 21 20 21 22 23 24 25 26 25 23 23 23 23 21 21 22 22 22 23 24 23 22 23 23
5 5 4 3 3 2 3 3 3 5 5 6 7 8 8 9 9 9 9 9 9 9 10 11 13 15 18 20 21 22 23 23 22 22 22 21 21 22 22 23 23 23 23 22 22 22 21 20 20 21 21 21 21 22 22 23 23 22 21 22 23 23 22 23 24 25 25 25 26 25 25 24 24 25 23 22 24 25 24 24 24 24 22 23 23
6 6 4 4 3 2 2 2 3 4 5 6 8 8 9 10 10 11 11 12 12 12 12 12 12 13 15 16 19 21 22 24 24 25 25 24 24 24 24 24 24 24 24 24 24 23 22 22 22 22 22 22 22 22 23 23 24 24 23 22 23 25 25 25 26 26 27 27 27 26 26 25 24 25 25 24 24 26 27 26 26 25 24 24 23
8 7 5 4 3 1 0 2 2 4 5 6 8 9 10 11 12 12 12 13 13 14 15 15 15 15 15 16 17 18 20 22 23 25 26 27 27 26 26 26 25 26 26 26 25 25 24 23 23 23 24 23 23 23 24 24 24 25 25 25 24 25 26 26 27 28 28 29 29 28 26 25 26 25 26 26 26 28 29 28 28 26 26 26 25
9 8 6 5 4 2 2 3 4 5 6 7 9 10 10 11 11 12 13 14 14 15 16 16 17 17 17 18 18 18 19 20 21 23 24 26 26 27 27 27 27 27 27 26 26 27 26 26 26 25 25 25 24 24 25 26 26 27 27 27 27 27 28 28 28 29 29 30 31 30 28 27 28 28 27 28 28 30 31 30 30 29 28 27 26
10 8 7 6 5 4 4 5 6 7 8 9 11 10 10 10 11 12 13 14 15 15 16 17 17 18 18 19 19 20 20 20 21 21 22 23 24 25 26 27 27 28 28 27 27 27 27 27 28 28 27 26 26 25 25 26 28 30 29 28 28 29 30 30 31 30 30 31 32 31 30 29 29 30 29 30 30 32 34 33 32 32 31 29 28
11 10 9 7 6 4 5 5 6 7 9 11 12 11 11 12 13 14 15 15 16 17 17 17 17 18 18 19 20 20 21 21 21 21 22 22 23 23 24 25 25 26 27 28 28 28 28 28 29 30 30 29 28 28 27 26 27 30 30 31 31 30 31 33 33 32 32 32 33 33 32 30 31 32 31 32 32 34 37 37 35 35 34 32 30
11 10 9 8 6 5 4 4 5 7 9 10 11 11 13 14 15 16 17 18 18 19 19 18 18 18 18 19 19 20 21 21 22 22 22 22 22 22 23 23 24 25 26 27 28 29 29 30 30 30 31 31 31 31 30 29 28 29 29 31 33 33 33 34 35 35 34 34 33 34 34 33 33 33 33 33 34 36 39 38 37 37 36 34 33
12 11 10 9 7 5 4 4 5 6 8 9 11 11 12 14 15 17 18 19 20 20 21 20 20 20 19 19 19 19 19 20 21 22 22 23 23 23 23 23 24 25 25 26 27 28 30 30 31 31 31 32 32 33 33 33 32 30 30 30 33 36 36 36 36 37 37 36 35 34 35 35 35 34 34 35 35 36 39 40 40 40 39 36 35
14 13 11 10 8 6 5 4 5 6 8 10 11 11 12 13 15 16 17 19 20 21 22 22 22 22 21 21 20 19 19 19 19 20 21 22 24 25 25 25 25 26 26 27 27 28 29 30 31 32 32 33 33 34 35 36 35 33 32 32 32 35 37 38 38 38 39 39 38 35 34 35 37 37 36 36 36 36 39 42 43 44 43 39 36
15 14 13 12 9 7 6 5 5 7 9 10 12 12 13 14 14 15 16 18 19 20 22 23 23 23 23 23 22 20 19 19 19 19 19 20 21 23 25 26 27 28 29 29 29 29 30 31 31 32 33 33 34 35 36 36 36 35 35 34 33 34 35 37 39 40 40 41 41 39 36 35 38 38 38 38 37 36 38 43 45 46 45 41 38
16 15 15 13 10 8 7 7 6 7 9 10 11 12 13 14 14 15 16 17 18 19 21 22 23 24 24 24 23 22 21 20 19 19 19 20 20 21 22 24 26 28 30 31 31 31 31 31 31 32 33 34 34 35 36 37 36 36 36 37 36 35 34 35 38 41 41 41 43 42 40 38 38 39 39 40 39 38 38 42 45 49 48 42 40
16 15 14 12 10 9 8 8 7 8 9 9 10 12 13 13 14 14 15 16 17 18 19 21 22 23 23 24 24 23 22 21 21 20 20 21 21 22 22 23 24 26 28 30 31 32 33 33 33 32 33 34 34 34 35 36 37 37 37 38 38 37 36 35 36 40 42 42 43 44 43 42 41 40 40 40 41 40 40 41 45 51 50 45 41
16 15 13 12 11 11 10 8 8 8 8 9 11 12 13 13 13 13 14 15 16 17 18 20 21 22 23 24 24 24 24 23 23 22 23 23 23 24 24 25 26 26 28 29 30 31 32 33 34 34 33 33 34 34 35 37 38 39 39 39 39 39 38 37 35 38 42 43 43 44 45 45 44 43 41 42 42 42 42 42 46 51 52 49 45
16 15 14 13 13 12 10 8 7 8 8 10 11 13 13 14 14 14 14 15 16 17 18 20 21 22 23 24 24 25 25 25 25 25 25 25 26 27 27 28 29 29 30 30 31 32 33 33 34 35 35 35 35 35 35 37 38 40 40 40 40 40 39 39 37 36 39 43 45 44 45 46 47 46 43 43 43 43 43 44 47 51 53 53 51
16 15 14 13 12 11 8 7 7 8 10 11 12 13 14 14 14 15 15 16 17 18 19 20 21 22 23 24 24 25 25 26 27 27 27 27 27 28 29 30 31 32 32 33 33 33 33 34 35 35 36 36 36 37 37 37 38 39 41 41 41 41 40 40 39 38 38 41 45 46 46 47 48 48 46 44 43 44 44 46 48 51 53 53 54
15 14 13 12 11 9 7 7 8 9 10 12 13 13 13 14 14 15 16 17 18 19 20 21 21 22 23 24 24 25 26 27 28 29 29 29 29 29 29 30 31 32 33 34 35 36 36 35 36 37 37 38 38 38 39 39 38 39 40 42 42 42 41 40 39 39 39 39 43 46 47 48 49 50 49 47 45 45 45 47 49 50 53 54 55
15 13 12 12 10 8 6 6 8 9 10 11 12 13 13 13 14 15 16 17 18 19 20 21 22 23 25 25 26 26 26 26 27 29 30 32 32 33 32 31 31 31 33 34 35 37 38 38 38 38 38 39 40 40 40 41 41 40 41 43 44 43 42 41 39 40 41 41 42 44 47 48 50 51 52 51 47 46 47 47 48 50 53 55 57
15 14 13 11 9 7 6 6 7 9 10 11 11 12 12 13 14 15 16 17 18 19 20 21 22 24 25 27 28 28 28 28 28 29 30 32 33 35 35 35 34 33 33 34 35 35 37 39 40 40 40 40 41 42 42 42 42 42 42 43 45 45 45 42 41 40 40 43 44 44 46 49 50 52 53 53 51 49 49 48 48 50 52 55 59
14 13 12 9 7 6 5 6 7 9 10 11 11 12 12 13 14 15 16 17 18 19 20 21 22 24 26 27 28 29 30 30 31 31 32 32 34 35 35 36 37 37 36 36 36 36 36 37 39 40 42 43 43 43 43 44 44 44 43 44 46 47 48 46 45 43 41 42 44 46 47 49 52 53 54 55 54 52 51 50 50 50 52 54 58
14 12 10 8 7 6 6 6 7 9 10 10 11 12 13 14 14 15 16 17 18 19 20 21 23 24 26 27 28 29 30 31 32 32 33 34 34 35 36 36 37 38 38 38 39 39 38 38 37 38 40 42 44 45 45 46 46 46 45 44 45 47 49 50 49 48 45 43 42 45 48 50 52 54 56 56 56 55 53 52 52 51 52 53 56
13 11 10 9 8 7 6 6 7 8 9 10 11 12 13 14 15 15 16 17 18 19 20 22 23 25 27 28 29 29 30 31 32 33 33 34 35 35 36 36 37 38 39 39 40 41 41 41 40 39 39 39 41 44 46 48 48 49 49 47 46 46 47 51 52 51 50 48 45 44 46 49 52 54 57 57 57 56 54 54 54 53 54 54 56
14 12 11 10 9 7 5 5 7 8 10 11 12 13 14 14 15 16 16 17 18 19 20 22 23 25 27 29 30 30 30 31 31 32 32 33 34 35 36 37 38 39 39 40 41 41 42 43 43 42 42 40 40 41 43 46 49 50 51 51 50 48 47 49 53 54 53 52 51 48 46 48 52 54 57 58 59 58 56 55 55 56 58 56 56
14 13 11 10 8 6 4 5 7 9 10 12 13 14 14 15 15 16 16 17 18 19 20 22 23 25 27 29 30 30 30 30 30 31 32 33 34 35 36 37 38 40 41 41 42 43 43 43 43 43 43 43 42 41 41 43 46 49 51 53 55 53 51 49 49 54 56 54 54 53 51 49 51 54 56 58 60 60 59 57 55 57 59 59 57
15 13 12 10 8 6 5 6 8 10 11 13 14 14 14 15 15 16 16 17 19 20 21 22 23 25 27 29 29 29 29 30 30 31 32 33 34 35 36 37 39 40 41 42 43 44 44 44 44 42 42 42 42 42 43 43 44 47 49 51 54 56 57 55 51 50 55 58 58 57 56 53 51 52 54 56 60 61 60 59 57 58 60 61 59
16 14 13 11 9 7 7 8 9 11 12 13 14 14 15 15 15 16 17 18 19 20 21 22 23 24 27 28 29 29 29 29 30 30 31 32 33 34 35 37 38 40 42 43 43 44 45 45 45 43 41 40 41 41 41 43 45 47 49 50 52 54 58 60 58 52 51 57 61 59 58 57 52 50 52 55 59 61 61 60 59 58 60 62 61
17 16 13 11 9 8 8 8 10 11 12 13 14 14 15 15 16 16 17 18 18 19 20 21 22 23 26 27 28 28 28 29 30 30 31 31 32 33 34 35 37 39 40 42 43 44 45 45 45 44 42 39 39 39 39 40 43 46 49 51 52 54 55 58 60 59 54 54 60 62 60 60 57 52 51 55 59 61 61 61 60 60 61 62 62
17 16 14 12 9 8 8 8 9 10 12 13 14 14 15 16 16 17 17 18 18 19 20 22 22 24 25 27 28 28 28 29 29 30 31 32 33 34 34 35 37 38 39 41 42 44 45 46 45 44 42 41 39 37 37 37 41 46 49 51 53 54 56 56 59 61 60 56 57 62 64 63 62 58 52 54 60 61 62 61 60 60 61 63 62
18 16 14 11 9 8 7 7 8 9 11 12 14 15 16 17 18 18 19 19 20 20 20 22 23 24 25 26 27 28 28 29 29 30 31 32 33 34 35 36 38 39 40 41 42 44 45 46 45 43 41 41 41 37 34 33 37 45 49 50 52 54 55 56 57 59 61 60 56 59 65 65 64 62 55 52 58 61 61 61 60 60 61 61 62
19 16 14 11 9 7 6 7 8 9 11 13 14 16 17 18 19 20 21 21 21 22 22 22 23 23 24 26 27 28 28 29 29 30 31 32 34 35 36 38 39 41 42 43 44 44 44 44 43 42 41 40 41 39 33 31 34 40 43 47 54 55 54 54 55 56 58 60 56 54 63 67 64 64 58 52 56 60 60 61 61 60 60 59 59
19 17 14 12 9 7 6 6 8 9 11 13 14 16 17 19 20 20 21 22 22 23 23 24 24 24 24 26 28 28 29 29 29 30 32 33 34 36 37 38 39 41 43 44 45 45 45 44 42 42 42 41 41 39 34 31 32 36 35 38 45 47 49 51 50 49 51 54 53 48 55 66 65 63 61 55 54 58 60 61 62 61 61 60 57
21 18 15 11 9 6 6 7 8 9 11 13 15 16 17 18 19 20 21 22 22 23 24 24 25 27 27 28 29 30 31 31 30 31 32 33 34 36 36 37 39 40 42 44 45 45 45 45 43 40 38 38 39 39 35 31 29 31 30 32 35 32 38 44 40 41 46 48 47 41 43 55 62 62 62 59 55 57 59 60 63 64 62 61 59
22 19 15 11 9 7 7 7 8 9 11 13 15 16 18 19 19 20 22 23 24 25 26 27 28 30 31 31 31 32 33 33 32 33 34 35 36 37 38 38 39 40 41 43 45 45 45 44 42 39 35 34 38 40 38 33 28 29 31 34 31 25 32 38 36 39 44 43 42 39 36 41 49 56 62 61 55 54 58 59 62 65 64 62 61
23 18 15 12 9 8 8 8 9 10 11 14 15 17 18 20 21 23 24 26 27 27 28 29 30 31 31 31 31 31 32 33 33 33 33 35 36 37 38 39 40 41 41 43 44 45 46 45 42 39 36 33 33 37 40 37 32 31 34 38 36 32 36 37 34 38 43 44 43 40 38 36 38 45 55 58 52 50 54 59 62 64 65 64 63
23 19 16 13 11 9 9 9 9 10 12 14 16 17 19 20 22 24 26 28 29 29 29 30 31 32 32 32 32 31 32 33 33 33 33 34 35 35 37 38 40 41 42 43 44 44 45 46 44 41 39 35 31 33 37 37 35 32 32 36 42 41 39 38 36 37 40 44 47 44 40 40 38 38 43 47 49 50 53 57 61 65 66 65 64
24 20 18 15 12 10 10 10 10 11 12 14 16 18 19 21 23 24 26 27 29 30 31 31 32 34 34 34 34 34 33 34 34 34 34 34 35 36 36 38 39 41 42 42 43 44 45 45 45 43 42 38 31 31 35 36 37 37 33 32 37 40 40 40 40 39 37 39 46 47 43 42 42 41 40 39 41 46 52 56 59 62 66 67 65
25 22 19 16 13 11 10 11 11 11 13 14 16 18 20 22 23 25 27 27 29 30 31 32 33 35 36 35 36 36 36 35 35 35 35 35 35 36 37 38 40 40 41 42 42 43 44 45 44 43 42 39 31 29 34 37 39 40 39 35 34 37 41 43 41 41 40 38 42 47 43 39 41 43 43 40 37 37 43 52 58 59 61 66 65
27 23 20 17 14 12 11 11 11 12 13 15 16 18 20 22 23 25 27 28 29 30 31 33 34 35 37 37 37 38 38 37 36 36 35 35 36 37 38 39 40 41 41 41 41 42 44 44 43 42 39 37 34 33 36 40 41 43 44 40 38 38 39 42 42 41 40 37 40 45 41 35 39 45 47 45 42 37 34 40 50 57 58 62 64
29 25 22 18 16 13 12 12 12 12 13 15 16 18 20 22 24 26 27 29 30 31 33 34 35 36 37 38 38 39 39 39 38 38 37 36 37 37 38 40 40 41 41 41 42 42 43 44 42 40 37 38 39 39 37 38 39 41 43 42 43 44 42 43 44 41 38 37 38 42 39 32 35 43 46 46 47 47 41 37 40 52 58 60 63
Wind_Direction
105 20 2 40 60 66 74 88 134 167 8 350 339 309 284 304 314 330 340 333 341 345 343 350 355 356 340 320 308 306 313 316 316 313 308 302 294 288 284 281 277 276 277 279 280 282 282 283 283 282 281 280 277 275 274 274 275 273 264 261 256 252 252 255 260 264 267 269 270 268 266 262 262 264 257 248 241 238 237 232 229 226 227 231 235
12 13 305 356 34 30 65 128 155 182 214 12 356 334 292 264 288 303 290 315 322 322 328 333 338 345 340 328 314 300 302 309 311 309 308 308 308 303 296 293 290 285 283 283 283 283 283 284 284 285 284 284 282 280 278 278 278 276 269 263 259 255 256 258 260 265 267 266 267 264 261 258 261 263 255 250 245 241 238 233 231 229 227 230 234
298 266 279 308 321 332 335 280 210 196 213 245 337 271 242 237 250 253 246 245 263 275 282 305 320 325 327 321 313 302 302 304 305 301 296 299 303 304 303 302 304 303 299 296 294 292 291 290 290 288 287 285 285 285 283 282 280 280 277 270 262 256 254 256 260 266 267 264 263 262 257 252 257 259 255 252 247 243 239 234 232 232 229 228 232
276 274 287 299 300 309 301 284 262 242 238 236 233 244 250 249 243 246 248 239 255 270 265 276 286 297 304 299 297 296 300 300 299 297 291 290 291 292 295 296 301 305 302 300 302 300 298 296 296 294 292 288 284 284 285 284 282 281 281 278 270 261 254 250 254 262 264 262 259 258 253 246 247 251 253 253 249 244 241 238 233 233 230 225 228
277 282 290 292 293 297 293 282 260 252 249 245 239 238 244 247 243 244 248 243 251 258 262 269 266 275 287 287 286 285 290 292 293 296 297 293 290 290 288 286 286 290 293 296 301 302 299 297 296 297 298 296 291 286 284 284 284 281 280 280 277 268 258 249 245 252 259 261 257 256 251 244 241 240 244 248 248 244 244 242 237 234 226 222 224
290 290 292 293 295 295 292 284 266 251 244 245 244 245 246 247 243 240 240 239 246 249 254 260 258 260 268 279 280 276 280 284 285 283 284 282 281 282 278 281 283 285 288 290 295 298 298 297 296 298 300 300 299 295 289 286 286 284 280 277 277 273 264 254 245 243 251 257 255 252 250 247 243 241 237 237 241 244 248 245 242 231 219 219 220
303 301 302 303 308 312 309 294 278 264 251 247 246 251 253 254 254 248 241 233 233 239 247 258 260 254 257 269 271 271 272 276 280 277 277 275 273 274 275 283 285 285 289 289 291 293 296 295 295 297 299 301 301 300 297 293 289 287 285 279 277 275 268 259 251 242 242 249 254 251 247 248 246 245 239 231 236 243 248 244 239 226 214 219 220
308 306 312 317 324 330 332 318 288 269 259 254 250 252 255 256 257 258 257 251 244 238 241 251 254 248 250 259 262 266 267 268 273 274 278 278 273 270 270 276 277 276 281 286 288 288 290 292 293 294 295 298 299 298 298 297 294 291 290 286 279 276 271 262 255 248 243 243 249 252 248 246 244 245 242 232 234 240 245 242 233 221 213 218 219
307 312 321 326 333 337 342 345 330 285 263 259 256 257 257 259 260 260 262 262 262 257 254 252 249 248 248 250 253 259 262 265 271 271 273 276 273 270 271 272 269 270 274 280 285 284 283 285 288 291 291 292 294 294 295 296 295 292 291 289 284 277 273 267 260 254 250 247 246 250 250 249 244 243 243 236 236 237 241 242 229 220 216 215 217
306 318 327 330 344 355 2 7 13 15 338 279 265 264 264 265 267 267 266 266 268 269 267 264 259 256 253 253 254 257 258 260 264 268 267 267 268 269 273 272 266 268 273 277 281 282 281 282 282 286 288 288 287 288 288 288 287 288 290 289 285 279 274 271 266 261 256 254 250 249 249 251 247 243 241 236 238 236 236 241 231 223 220 217 216
302 321 349 6 21 31 33 30 29 27 29 26 6 319 289 279 277 275 274 273 273 273 273 273 272 268 264 262 260 260 262 261 263 267 267 264 264 265 267 267 265 268 270 270 272 276 278 279 279 281 283 284 283 282 282 282 282 285 287 287 283 279 275 271 269 267 263 260 256 251 247 250 249 244 239 232 233 232 231 236 230 225 223 221 219
220 143 103 92 87 75 60 46 38 29 25 21 18 15 7 353 326 302 292 285 281 279 277 276 277 276 274 273 271 268 268 269 268 269 269 264 262 262 263 264 264 267 267 265 266 268 271 274 277 279 279 279 279 278 278 278 280 281 283 285 283 279 277 274 271 269 268 265 262 255 248 248 248 243 238 230 229 230 229 230 228 228 226 223 221
180 156 139 126 114 99 81 60 45 33 23 17 10 6 2 359 354 347 336 319 305 296 289 285 282 280 278 278 277 276 275 274 273 272 272 270 267 264 263 263 263 265 265 264 265 266 268 271 274 278 279 276 275 274 274 274 275 276 278 281 283 280 277 276 273 271 269 267 265 260 251 247 246 241 236 230 228 227 228 229 229 230 227 223 221
182 173 159 152 141 120 89 61 46 36 26 19 11 4 357 350 345 340 336 331 326 319 311 304 296 291 286 283 281 279 277 276 276 274 274 272 271 270 268 268 267 266 264 263 264 265 268 270 271 273 275 275 273 271 271 270 270 271 272 274 279 280 278 276 274 272 271 269 266 261 254 250 246 241 237 232 229 228 226 228 229 228 227 223 222
197 189 178 175 163 137 100 50 40 31 21 14 5 359 352 346 340 334 329 324 321 318 314 311 306 302 296 292 288 284 282 279 277 275 274 272 271 271 271 271 271 270 267 264 264 264 265 268 269 270 271 272 272 270 268 267 266 267 268 269 272 276 278 277 274 272 270 270 268 262 257 252 247 242 239 235 232 231 228 227 228 227 227 224 223
207 202 197 196 192 182 139 9 12 10 6 359 352 347 342 339 337 333 329 323 318 314 309 306 303 300 298 296 293 290 288 284 281 278 275 273 271 270 269 270 270 269 269 268 268 267 267 267 267 268 269 269 269 269 267 266 265 265 267 268 267 269 273 276 275 272 269 268 268 265 257 251 247 244 240 237 233 233 230 227 229 228 227 226 223
209 208 210 218 225 246 292 333 347 353 351 346 341 337 336 335 335 333 330 326 321 316 310 305 300 297 295 293 292 290 289 287 285 283 279 276 273 271 269 269 268 268 267 267 267 267 267 268 267 267 268 267 266 267 267 266 264 263 265 268 267 265 267 270 272 272 269 266 267 264 257 250 246 245 242 238 233 234 233 229 232 231 228 228 226
210 215 219 232 238 264 296 325 336 342 340 339 340 339 339 337 337 336 335 332 328 324 317 312 305 300 295 291 289 287 287 286 285 284 283 280 277 274 271 269 268 267 267 267 265 265 265 265 267 268 267 265 264 265 267 269 269 266 264 264 264 261 261 265 267 268 267 265 265 261 256 250 246 246 244 239 233 233 234 231 233 233 229 228 226
215 222 226 237 243 270 297 324 329 334 336 337 341 342 344 344 345 345 344 343 339 335 329 323 316 309 303 297 292 288 286 285 284 284 283 283 282 279 276 273 270 268 267 267 267 267 266 264 264 266 266 265 262 261 263 267 269 269 266 263 261 259 257 260 263 264 263 262 262 259 255 250 248 248 246 241 234 232 233 232 233 234 229 226 225
221 226 230 239 242 271 294 316 323 329 336 342 346 346 348 348 350 350 349 348 346 343 340 335 328 321 314 307 301 295 291 287 285 284 284 284 284 283 281 280 277 274 272 269 268 268 268 267 265 264 264 264 262 260 259 260 262 265 266 265 264 262 258 256 259 261 260 257 257 257 254 250 249 249 247 244 238 234 234 234 233 234 231 225 226
225 228 233 239 243 266 279 300 317 330 344 354 353 353 354 353 353 353 352 350 348 346 343 340 336 332 327 319 313 306 301 297 292 289 287 286 286 286 285 284 283 281 279 277 274 271 269 267 267 265 263 262 262 261 259 258 260 261 262 264 265 264 261 257 257 258 258 256 253 252 252 251 249 248 247 246 242 237 236 237 234 233 231 227 228
227 231 235 238 244 256 261 283 307 332 353 0 359 360 358 356 356 354 353 350 349 347 344 342 340 337 334 329 325 319 315 311 307 302 297 294 291 289 287 286 286 285 284 283 281 279 275 271 268 266 265 263 262 261 260 258 259 259 259 261 263 263 262 260 257 257 255 255 253 249 248 249 250 249 247 247 244 239 238 239 237 236 233 227 228
230 234 237 238 241 247 254 272 299 330 350 357 360 1 358 358 357 354 353 351 349 347 345 343 341 339 336 333 330 328 325 322 320 316 311 305 299 294 291 288 287 286 286 285 284 282 280 277 273 269 267 265 263 261 259 258 258 259 259 260 262 263 263 262 259 258 255 253 253 250 247 246 249 250 249 250 248 242 239 238 238 240 237 229 229
230 234 237 239 242 250 261 275 294 320 339 350 354 357 358 358 355 353 352 350 349 347 345 343 341 338 336 334 333 332 330 327 325 322 318 313 307 302 297 293 290 288 287 286 285 283 281 279 276 272 269 267 266 264 261 260 260 259 260 261 262 263 263 263 261 259 257 254 253 252 249 246 248 251 252 251 251 246 241 237 235 238 240 233 231
231 235 237 239 244 251 258 268 288 308 325 338 346 353 356 355 352 350 349 348 347 345 344 342 340 338 337 336 335 333 331 328 326 323 320 317 314 311 308 305 301 298 295 292 290 288 285 282 279 276 271 268 266 266 265 264 263 261 260 262 264 265 263 262 262 259 258 257 254 253 251 249 247 249 253 253 251 248 242 237 234 237 240 238 234
232 235 238 241 243 245 251 263 285 303 320 333 344 351 352 351 347 346 346 345 344 344 343 341 341 340 339 338 336 334 332 330 328 325 323 320 318 316 315 314 312 311 308 304 300 297 294 290 286 282 277 272 268 266 265 265 266 265 264 264 265 268 266 262 262 261 258 258 257 254 252 252 251 248 250 254 253 249 244 238 234 235 239 239 238
232 235 238 241 244 246 255 270 292 308 325 338 347 350 349 346 345 345 344 344 344 344 344 343 343 342 340 339 337 335 333 332 330 328 326 323 322 320 319 318 318 318 316 313 310 306 303 299 295 290 285 280 274 270 267 265 264 265 266 267 267 269 269 264 261 262 262 259 258 256 253 251 253 251 249 251 254 252 247 241 235 234 237 238 238
233 237 241 246 252 259 273 293 311 325 337 347 351 350 347 344 343 343 342 343 344 344 344 344 343 341 340 339 338 336 334 333 331 329 328 326 324 322 321 320 320 320 319 318 316 313 309 306 303 299 294 288 283 278 273 268 265 264 264 265 267 268 270 268 261 262 266 265 260 257 255 252 251 253 250 249 252 253 249 244 239 235 236 238 238
235 240 246 254 262 273 290 308 322 333 342 350 351 348 345 343 342 342 343 343 343 343 343 343 342 340 339 338 337 336 334 332 331 329 328 327 326 324 323 321 321 321 320 320 319 317 314 311 308 305 302 298 292 287 281 276 271 268 266 264 265 266 268 270 265 262 265 268 265 260 257 255 252 252 253 250 249 252 250 247 244 239 237 238 238
236 241 247 255 264 276 291 308 322 332 342 348 349 347 344 342 342 342 344 344 342 342 342 341 341 339 338 336 335 335 333 332 330 328 327 326 326 325 325 324 323 323 321 320 320 319 317 314 312 308 306 302 299 295 290 285 279 274 271 267 266 266 267 268 268 265 263 264 266 263 258 257 255 252 253 252 249 249 251 250 248 244 240 238 237
234 240 245 253 262 272 288 307 323 333 341 346 347 346 344 343 345 345 345 343 341 341 341 341 339 338 337 335 334 334 334 333 331 329 328 326 326 325 326 326 325 325 324 323 321 319 317 315 314 311 309 305 302 299 296 292 287 281 276 272 269 267 266 267 268 268 267 264 262 261 259 258 256 253 252 252 251 248 249 250 249 248 243 239 238
233 238 244 251 257 267 288 307 322 332 339 344 347 346 346 347 347 347 345 342 340 339 340 339 338 338 336 335 334 334 334 333 332 330 329 327 326 326 325 325 325 325 325 325 323 321 318 316 314 312 310 307 304 301 299 296 292 289 283 277 272 269 267 267 267 267 270 269 262 259 261 261 259 255 252 251 252 249 247 248 248 249 247 241 238
233 237 240 245 251 266 286 304 319 331 340 346 349 349 350 351 350 347 344 341 339 338 339 339 338 338 335 335 334 333 333 331 330 329 328 327 326 326 325 324 324 324 324 324 324 323 321 319 316 313 310 308 305 302 301 297 293 291 288 283 277 272 269 267 267 266 268 271 267 261 260 262 261 256 252 251 252 251 248 247 247 248 248 244 240
231 233 234 239 250 263 280 303 323 335 344 349 351 352 352 352 348 345 342 340 338 337 338 338 339 338 335 334 333 333 332 330 329 328 327 326 326 325 325 325 324 323 324 324 324 324 324 323 321 318 314 310 306 303 301 298 296 293 290 288 283 277 271 267 266 266 266 267 269 266 261 261 262 258 253 252 252 252 249 247 245 246 247 245 242
227 228 233 239 248 258 278 308 330 340 347 350 350 351 350 349 345 342 340 337 336 336 336 337 338 337 334 332 332 332 331 330 329 328 328 327 326 327 327 326 325 324 324 324 324 324 324 324 324 322 318 315 310 305 301 297 296 294 292 290 288 284 278 270 265 265 264 265 267 268 264 261 261 258 255 253 253 252 251 247 244 244 246 245 243
224 225 232 237 244 254 282 313 331 338 343 345 346 348 347 346 343 340 339 335 335 334 334 336 337 335 332 330 331 331 331 330 329 328 327 327 327 327 327 326 325 325 324 324 325 324 324 323 323 323 320 317 314 309 304 299 295 293 292 291 290 288 284 278 270 264 263 264 265 266 266 264 261 257 254 255 254 252 251 248 244 243 244 245 243
223 225 230 235 243 257 283 309 324 330 336 339 343 345 345 343 341 339 335 333 333 332 332 334 334 333 331 330 330 330 329 329 328 327 326 326 325 325 325 324 323 324 324 324 325 325 325 324 323 323 321 318 315 311 307 303 298 292 289 287 287 288 286 283 278 269 263 262 261 263 265 266 264 257 254 255 254 250 251 250 245 242 243 245 244
224 226 230 236 245 262 284 304 316 325 332 337 341 342 342 341 339 336 333 332 332 331 331 332 332 330 330 329 329 329 328 327 326 324 323 322 322 321 321 321 321 322 322 323 324 324 325 325 323 323 321 317 314 310 306 301 298 295 290 286 282 282 282 283 282 277 268 262 260 260 261 263 266 262 255 254 254 250 249 250 247 244 242 244 244
225 228 232 238 248 265 283 301 314 325 331 334 339 339 338 338 335 333 331 331 330 330 330 329 331 330 329 328 327 328 326 325 324 322 322 320 319 319 319 320 320 319 319 319 321 322 323 324 324 322 320 317 312 309 305 299 294 292 290 287 283 278 277 278 279 279 274 265 259 258 258 259 263 264 258 254 253 250 248 249 249 247 244 243 244
227 230 234 239 250 265 282 301 314 325 329 332 335 333 333 333 331 331 330 330 330 331 331 330 331 329 329 328 326 326 325 324 323 321 321 320 319 319 319 319 319 318 317 317 318 320 322 324 324 322 319 316 313 309 305 300 295 292 290 287 284 280 276 274 273 275 275 271 262 257 256 256 259 262 260 253 251 250 248 249 249 249 247 245 245
227 230 234 238 248 262 280 301 312 321 325 328 329 328 330 331 331 331 332 332 330 330 330 328 328 327 326 326 324 323 322 322 321 320 320 320 319 319 320 320 320 320 319 319 320 321 323 325 323 320 317 314 312 309 304 300 295 293 293 291 287 282 278 275 272 270 271 273 268 259 257 256 257 259 259 253 248 248 249 250 251 250 250 249 247
228 230 232 236 244 256 277 296 308 316 321 324 326 327 330 331 331 331 332 332 330 329 328 327 325 325 323 321 320 319 319 319 319 319 320 320 320 321 322 323 323 323 322 323 323 324 324 324 322 318 314 311 308 306 302 295 289 288 292 293 291 287 282 277 273 269 267 270 271 263 257 256 256 256 257 254 248 246 249 251 251 250 250 250 248
228 228 229 233 241 252 272 290 303 311 317 322 324 327 329 329 330 330 330 330 329 328 328 326 323 323 322 320 318 318 318 320 320 321 321 321 321 322 323 323 324 324 323 323 323 323 323 322 321 317 313 310 307 305 300 292 285 285 288 287 287 292 291 282 275 270 265 267 270 266 258 255 255 254 254 256 252 246 248 251 250 249 249 249 249
225 225 226 229 238 249 268 284 299 307 314 318 322 325 326 327 328 327 326 325 326 325 324 323 323 323 322 321 320 320 321 322 323 323 322 322 322 322 322 322 322 322 321 320 320 320 320 320 319 315 310 306 304 301 298 293 285 280 278 276 279 286 286 282 282 277 266 264 268 267 262 258 256 254 252 254 254 248 247 249 250 248 247 248 248
224 225 225 226 233 246 264 279 294 303 310 315 319 322 323 323 322 321 321 321 322 323 323 323 323 322 320 320 321 322 322 323 324 324 324 323 323 322 322 322 321 321 320 320 319 320 319 318 316 312 303 296 295 294 291 288 283 275 267 265 270 271 270 278 291 285 272 268 267 263 261 259 257 254 251 252 254 250 248 249 249 247 245 245 246
224 224 224 225 230 244 261 277 289 298 307 312 316 320 320 320 320 320 322 322 323 323 322 322 322 319 318 318 319 319 319 320 321 322 321 321 321 321 321 320 320 320 320 319 319 320 319 317 315 309 301 292 289 289 287 284 280 275 268 260 257 260 267 276 287 287 281 276 271 263 255 253 256 253 248 249 250 249 250 249 247 245 243 243 244
225 224 224 226 231 243 260 274 285 293 302 310 314 316 318 318 319 321 323 323 323 323 322 321 321 318 317 318 317 318 318 318 318 318 319 318 318 318 318 318 318 319 319 318 319 318 317 316 313 308 301 292 283 280 283 284 278 273 272 263 255 255 262 269 274 280 285 283 277 272 261 254 257 255 249 250 249 245 245 246 246 245 242 242 243
225 225 225 229 234 242 258 271 281 291 300 308 311 313 315 316 318 319 320 321 320 320 320 320 319 317 317 318 318 318 318 318 318 318 318 318 317 317 316 316 316 316 316 316 316 316 315 313 311 307 300 294 285 277 277 279 275 268 267 264 258 257 260 263 266 267 272 280 280 277 271 264 263 259 254 255 251 246 244 243 244 246 244 241 243
225 226 227 230 235 241 255 269 280 290 298 305 308 311 314 315 317 317 318 318 317 317 318 319 319 317 317 319 318 318 318 318 318 317 317 317 316 315 315 314 314 314 314 314 314 313 312 311 308 304 298 292 284 273 270 270 268 265 264 264 264 265 265 263 261 258 260 269 276 277 277 276 273 267 261 257 253 253 254 248 243 245 246 243 243
225 226 227 231 235 241 253 267 279 289 296 302 306 310 313 314 315 316 317 317 317 317 318 318 318 317 317 318 318 318 318 318 317 316 316 315 314 314 313 313 313 313 313 312 312 311 310 308 305 301 296 287 280 273 269 267 266 265 263 264 266 266 267 263 257 254 256 261 267 272 274 278 280 275 268 261 254 256 267 264 248 242 244 244 242
226 226 228 232 236 242 252 266 279 288 295 301 306 310 312 313 314 316 317 317 318 319 320 319 318 318 318 318 318 318 317 318 317 315 315 314 313 313 312 312 312 312 311 310 310 309 307 305 302 298 290 282 282 282 277 269 267 265 261 261 264 264 264 263 256 251 254 258 262 270 273 277 283 280 275 269 261 256 264 276 262 243 242 244 242